| time (UTC) | temp C | wind direction | speed KPH | gust KPH | rain 1hr cm | rain 24hr cm | rain mn cm | humidity % | barometer mb |
| 20260505114552 | 5 | 0 | 0.0 | 0.0 | 0.00 | 0.00 | 0.00 | 87 | 1017.2 |
| 20260505113053 | 4 | 0 | 0.0 | 0.0 | 0.00 | 0.00 | 0.00 | 87 | 1017.1 |
| 20260505111556 | 4 | 0 | 0.0 | 0.0 | 0.00 | 0.00 | 0.00 | 87 | 1017.2 |
| 20260505101558 | 5 | 0 | 0.0 | 0.0 | 0.00 | 0.00 | 0.00 | 85 | 1017.0 |
| 20260505100101 | 5 | 0 | 0.0 | 0.0 | 0.00 | 0.00 | 0.00 | 85 | 1016.9 |
| 20260505094558 | 5 | 0 | 0.0 | 0.0 | 0.00 | 0.00 | 0.00 | 85 | 1016.8 |
| 20260505093058 | 5 | 0 | 0.0 | 0.0 | 0.00 | 0.00 | 0.00 | 84 | 1016.7 |
| 20260505091600 | 6 | 0 | 0.0 | 0.0 | 0.00 | 0.00 | 0.00 | 84 | 1016.7 |
| 20260505090106 | 6 | 0 | 0.0 | 0.0 | 0.00 | 0.00 | 0.00 | 84 | 1016.7 |
| 20260505084557 | 6 | 0 | 0.0 | 0.0 | 0.00 | 0.00 | 0.00 | 84 | 1016.6 |
| 20260505083102 | 6 | 0 | 0.0 | 1.6 | 0.00 | 0.00 | 0.00 | 84 | 1016.7 |
| 20260505081602 | 6 | 317 | 0.0 | 3.2 | 0.00 | 0.00 | 0.00 | 84 | 1016.6 |
| 20260505080057 | 6 | 317 | 0.0 | 1.6 | 0.00 | 0.00 | 0.00 | 84 | 1016.6 |
| 20260505074555 | 6 | 0 | 0.0 | 3.2 | 0.00 | 0.00 | 0.00 | 83 | 1016.5 |
| 20260505073057 | 6 | 0 | 0.0 | 3.2 | 0.00 | 0.00 | 0.00 | 83 | 1016.6 |
| 20260505071555 | 7 | 0 | 0.0 | 4.8 | 0.00 | 0.00 | 0.00 | 83 | 1016.7 |
| 20260505070055 | 7 | 323 | 0.0 | 4.8 | 0.00 | 0.00 | 0.00 | 82 | 1016.7 |
| 20260505064551 | 7 | 0 | 0.0 | 1.6 | 0.00 | 0.00 | 0.00 | 82 | 1017.0 |
| 20260505063053 | 7 | 0 | 0.0 | 4.8 | 0.00 | 0.00 | 0.00 | 81 | 1017.1 |
| 20260505061555 | 7 | 284 | 0.0 | 4.8 | 0.00 | 0.00 | 0.00 | 81 | 1017.3 |
| 20260505060055 | 7 | 288 | 3.2 | 4.8 | 0.00 | 0.00 | 0.00 | 81 | 1017.1 |
| 20260505054553 | 7 | 265 | 3.2 | 11.3 | 0.00 | 0.00 | 0.00 | 81 | 1017.1 |
| 20260505053107 | 7 | 257 | 0.0 | 4.8 | 0.00 | 0.00 | 0.00 | 82 | 1017.1 |
| 20260505051555 | 7 | 244 | 1.6 | 8.0 | 0.00 | 0.00 | 0.00 | 81 | 1017.2 |
| 20260505041551 | 8 | 0 | 0.0 | 0.0 | 0.00 | 0.00 | 0.00 | 78 | 1017.3 |
| 20260505040056 | 8 | 0 | 0.0 | 4.8 | 0.00 | 0.00 | 0.00 | 78 | 1017.4 |
| 20260505034555 | 9 | 0 | 0.0 | 3.2 | 0.00 | 0.00 | 0.00 | 77 | 1017.5 |
| 20260505033111 | 9 | 0 | 0.0 | 0.0 | 0.00 | 0.00 | 0.00 | 76 | 1017.7 |
| 20260505031553 | 10 | 0 | 0.0 | 3.2 | 0.00 | 0.00 | 0.00 | 75 | 1017.8 |
| 20260505030055 | 10 | 0 | 0.0 | 3.2 | 0.00 | 0.00 | 0.00 | 74 | 1017.8 |
| 20260505024601 | 11 | 0 | 0.0 | 0.0 | 0.00 | 0.00 | 0.00 | 72 | 1017.6 |
| 20260505023105 | 11 | 0 | 0.0 | 3.2 | 0.00 | 0.00 | 0.00 | 71 | 1017.6 |
| 20260505021555 | 11 | 0 | 0.0 | 3.2 | 0.00 | 0.00 | 0.00 | 70 | 1017.5 |
| 20260505020055 | 12 | 0 | 0.0 | 3.2 | 0.00 | 0.00 | 0.00 | 67 | 1017.4 |
| 20260505014554 | 12 | 0 | 0.0 | 3.2 | 0.00 | 0.00 | 0.00 | 66 | 1017.3 |
| 20260505013109 | 13 | 263 | 0.0 | 4.8 | 0.00 | 0.00 | 0.00 | 64 | 1017.2 |
| 20260505011603 | 13 | 261 | 0.0 | 6.4 | 0.00 | 0.00 | 0.00 | 62 | 1017.0 |
| 20260505010106 | 15 | 273 | 1.6 | 4.8 | 0.00 | 0.00 | 0.00 | 60 | 1017.0 |
| 20260505004603 | 15 | 0 | 3.2 | 9.7 | 0.00 | 0.00 | 0.00 | 57 | 1016.9 |
| 20260505003104 | 16 | 275 | 1.6 | 9.7 | 0.00 | 0.00 | 0.00 | 55 | 1016.8 |
| 20260505001606 | 16 | 286 | 3.2 | 11.3 | 0.00 | 0.00 | 0.00 | 52 | 1016.8 |
| 20260504234624 | 18 | 0 | 0.0 | 6.4 | 0.00 | 0.00 | 0.00 | 47 | 1016.6 |
| 20260504233103 | 18 | 246 | 1.6 | 11.3 | 0.00 | 0.00 | 0.00 | 45 | 1016.4 |
| 20260504231607 | 19 | 247 | 3.2 | 16.1 | 0.00 | 0.00 | 0.00 | 44 | 1016.5 |
| 20260504230100 | 19 | 275 | 1.6 | 16.1 | 0.00 | 0.00 | 0.00 | 43 | 1016.3 |
| 20260504224606 | 19 | 248 | 4.8 | 14.5 | 0.00 | 0.00 | 0.00 | 43 | 1016.3 |
| 20260504223102 | 20 | 0 | 6.4 | 16.1 | 0.00 | 0.00 | 0.00 | 44 | 1016.4 |
| 20260504221601 | 20 | 123 | 3.2 | 24.1 | 0.00 | 0.00 | 0.00 | 43 | 1016.3 |
| 20260504220057 | 20 | 283 | 1.6 | 20.9 | 0.00 | 0.00 | 0.00 | 42 | 1016.4 |
| 20260504214555 | 20 | 336 | 1.6 | 14.5 | 0.00 | 0.00 | 0.00 | 43 | 1016.3 |
| 20260504213100 | 20 | 159 | 4.8 | 17.7 | 0.00 | 0.00 | 0.00 | 42 | 1016.3 |
| 20260504211554 | 20 | 217 | 3.2 | 14.5 | 0.00 | 0.00 | 0.00 | 40 | 1016.2 |
| 20260504204635 | 21 | 0 | 3.2 | 16.1 | 0.00 | 0.00 | 0.00 | 39 | 1016.4 |
| 20260504203057 | 20 | 223 | 3.2 | 20.9 | 0.00 | 0.00 | 0.00 | 40 | 1016.3 |
| 20260504201556 | 20 | 105 | 3.2 | 24.1 | 0.00 | 0.00 | 0.00 | 43 | 1016.4 |
| 20260504200059 | 20 | 32 | 3.2 | 14.5 | 0.00 | 0.00 | 0.00 | 41 | 1016.4 |
| 20260504194557 | 20 | 198 | 3.2 | 19.3 | 0.00 | 0.00 | 0.00 | 39 | 1016.7 |
| 20260504193053 | 20 | 179 | 1.6 | 17.7 | 0.00 | 0.00 | 0.00 | 37 | 1016.9 |
| 20260504191554 | 20 | 176 | 4.8 | 25.7 | 0.00 | 0.00 | 0.00 | 36 | 1017.2 |
| 20260504190101 | 20 | 124 | 3.2 | 16.1 | 0.00 | 0.00 | 0.00 | 34 | 1017.2 |
| 20260504184604 | 20 | 180 | 3.2 | 12.9 | 0.00 | 0.00 | 0.00 | 31 | 1017.3 |
| 20260504183101 | 20 | 0 | 6.4 | 27.4 | 0.00 | 0.00 | 0.00 | 33 | 1017.5 |
| 20260504181555 | 20 | 243 | 4.8 | 17.7 | 0.00 | 0.00 | 0.00 | 32 | 1017.5 |
| 20260504180055 | 20 | 91 | 4.8 | 16.1 | 0.00 | 0.00 | 0.00 | 35 | 1017.4 |
| 20260504174556 | 20 | 123 | 3.2 | 9.7 | 0.00 | 0.00 | 0.00 | 36 | 1017.5 |
| 20260504173056 | 20 | 306 | 1.6 | 16.1 | 0.00 | 0.00 | 0.00 | 38 | 1017.6 |
| 20260504171557 | 20 | 244 | 3.2 | 14.5 | 0.00 | 0.00 | 0.00 | 39 | 1017.7 |